User: anonymous   Login
Location: Pardubice
(50.0330°N, 15.7830°E)
Time: 22:00:11
(UTC+02:00)
Language:

SDO - Orbit

View from above orbital plane
View from above orbital plane
View from above satellite
View from above satellite

Ground track
Ground track

The orbit data is extracted from the following two-line orbital elements,

1 36395U 10005A   22142.45623622 -.00000058  00000-0  00000-0 0  9997
2 36395  31.6078 109.6384 0001891 261.6194 291.2076  1.00271594 45153
Epoch (UTC): 22 May 2022 10:56:58
Eccentricity: 0.0001891
inclination: 31.6078°
perigee height: 35778 km
apogee height: 35794 km
right ascension of ascending node: 109.6384°
argument of perigee: 261.6194°
revolutions per day: 1.00271594
mean anomaly at epoch: 291.2076°
orbit number at epoch: 4515

The dashed part of the orbit path shows where the satellite is in the earth's shadow,  

DLR